Time,TemperatureF,DewpointF,PressureIn,WindDirection,WindDirectionDegrees,WindSpeedMPH,WindSpeedGustMPH,Humidity,HourlyPrecipIn,Conditions,Clouds,dailyrainin,SoftwareType,DateUTC
2013-05-24 00:01:00,67.0,63.7,29.88,NNE,12,0.0,5.0,89,0.00,,---,0.07,VWS V14.01,2013-05-24 04:01:00,
2013-05-24 00:06:00,67.0,63.7,29.88,NNW,330,1.0,3.0,89,0.00,,---,0.00,VWS V14.01,2013-05-24 04:06:00,
2013-05-24 00:11:00,67.0,63.7,29.89,NNW,335,0.0,2.0,89,0.00,,---,0.00,VWS V14.01,2013-05-24 04:11:00,
2013-05-24 00:16:00,67.0,63.7,29.89,NNE,14,0.0,2.0,89,0.00,,---,0.00,VWS V14.01,2013-05-24 04:16:00,
2013-05-24 00:22:00,66.9,63.9,29.88,North,349,0.0,1.0,90,0.00,,---,0.00,VWS V14.01,2013-05-24 04:22:00,
2013-05-24 00:27:00,66.9,63.6,29.88,NE,37,0.0,0.0,89,0.00,,---,0.00,VWS V14.01,2013-05-24 04:27:00,
2013-05-24 00:32:00,66.9,63.6,29.88,NW,318,0.0,1.0,89,0.00,,---,0.00,VWS V14.01,2013-05-24 04:32:00,
2013-05-24 00:37:00,66.9,63.6,29.89,NNW,333,0.0,0.0,89,0.00,,---,0.00,VWS V14.01,2013-05-24 04:37:00,
2013-05-24 00:42:00,66.8,63.5,29.89,NNW,333,0.0,0.0,89,0.00,,---,0.00,VWS V14.01,2013-05-24 04:42:00,
2013-05-24 00:47:00,66.7,63.7,29.89,NNW,333,0.0,0.0,90,0.00,,---,0.00,VWS V14.01,2013-05-24 04:47:00,
2013-05-24 00:52:00,66.6,63.6,29.89,NW,315,0.0,0.0,90,0.00,,---,0.00,VWS V14.01,2013-05-24 04:52:00,
2013-05-24 00:57:00,66.6,63.6,29.89,NW,315,0.0,0.0,90,0.00,,---,0.00,VWS V14.01,2013-05-24 04:57:00,
2013-05-24 01:02:00,66.4,63.7,29.89,NW,315,0.0,0.0,91,0.00,,---,0.00,VWS V14.01,2013-05-24 05:02:00,
2013-05-24 01:07:00,66.3,63.6,29.89,NW,314,0.0,0.0,91,0.00,,---,0.00,VWS V14.01,2013-05-24 05:07:00,
2013-05-24 01:12:00,66.2,63.5,29.89,NW,314,0.0,1.0,91,0.00,,---,0.00,VWS V14.01,2013-05-24 05:12:00,
2013-05-24 01:17:00,66.1,63.4,29.89,NNW,335,2.0,2.0,91,0.00,,---,0.00,VWS V14.01,2013-05-24 05:17:00,
2013-05-24 01:22:00,66.1,63.4,29.89,NNW,330,0.0,1.0,91,0.00,,---,0.00,VWS V14.01,2013-05-24 05:22:00,
2013-05-24 01:27:00,66.1,63.1,29.88,NNW,339,0.0,1.0,90,0.00,,---,0.00,VWS V14.01,2013-05-24 05:27:00,
2013-05-24 01:32:00,66.1,63.1,29.89,NNW,328,0.0,0.0,90,0.00,,---,0.00,VWS V14.01,2013-05-24 05:32:00,
2013-05-24 01:37:00,66.0,63.0,29.88,NNE,23,0.0,1.0,90,0.00,,---,0.00,VWS V14.01,2013-05-24 05:37:00,
2013-05-24 01:42:00,65.9,62.9,29.88,NW,308,0.0,0.0,90,0.00,,---,0.00,VWS V14.01,2013-05-24 05:42:00,
2013-05-24 01:47:00,65.8,63.1,29.88,NW,326,0.0,0.0,91,0.00,,---,0.00,VWS V14.01,2013-05-24 05:47:00,
2013-05-24 01:52:00,65.6,62.9,29.88,NW,323,0.0,0.0,91,0.00,,---,0.00,VWS V14.01,2013-05-24 05:52:00,
2013-05-24 01:57:00,65.4,62.7,29.88,NW,323,1.0,1.0,91,0.00,,---,0.00,VWS V14.01,2013-05-24 05:57:00,
2013-05-24 02:02:00,65.4,62.7,29.88,NW,323,0.0,0.0,91,0.00,,---,0.00,VWS V14.01,2013-05-24 06:02:00,
2013-05-24 02:07:00,65.2,62.8,29.88,NW,323,0.0,0.0,92,0.00,,---,0.00,VWS V14.01,2013-05-24 06:07:00,
2013-05-24 02:12:00,64.9,62.5,29.88,NW,323,0.0,0.0,92,0.00,,---,0.00,VWS V14.01,2013-05-24 06:12:00,
2013-05-24 02:17:00,64.7,62.3,29.88,NW,326,0.0,1.0,92,0.00,,---,0.00,VWS V14.01,2013-05-24 06:17:00,
2013-05-24 02:22:00,64.5,62.1,29.88,NW,326,0.0,1.0,92,0.00,,---,0.00,VWS V14.01,2013-05-24 06:22:00,
2013-05-24 02:27:00,64.5,62.4,29.88,NW,326,0.0,0.0,93,0.00,,---,0.00,VWS V14.01,2013-05-24 06:27:00,
2013-05-24 02:32:00,64.4,62.3,29.88,NNW,330,1.0,1.0,93,0.00,,---,0.00,VWS V14.01,2013-05-24 06:32:00,
2013-05-24 02:37:00,64.3,62.2,29.88,NNW,330,0.0,1.0,93,0.00,,---,0.00,VWS V14.01,2013-05-24 06:37:00,
2013-05-24 02:42:00,64.2,62.1,29.88,NNW,330,1.0,1.0,93,0.00,,---,0.00,VWS V14.01,2013-05-24 06:42:00,
2013-05-24 02:47:00,64.1,62.0,29.88,NW,326,0.0,0.0,93,0.00,,---,0.00,VWS V14.01,2013-05-24 06:47:00,
2013-05-24 02:52:00,64.1,62.0,29.88,WNW,289,2.0,2.0,93,0.00,,---,0.00,VWS V14.01,2013-05-24 06:52:00,
2013-05-24 02:57:00,64.0,61.9,29.88,NW,319,0.0,2.0,93,0.00,,---,0.00,VWS V14.01,2013-05-24 06:57:00,
2013-05-24 03:02:00,63.9,61.8,29.88,WNW,295,0.0,3.0,93,0.00,,---,0.00,VWS V14.01,2013-05-24 07:02:00,
2013-05-24 03:07:00,63.9,61.8,29.88,NW,305,0.0,1.0,93,0.00,,---,0.00,VWS V14.01,2013-05-24 07:07:00,
2013-05-24 03:12:00,63.8,61.7,29.88,NW,305,0.0,0.0,93,0.00,,---,0.00,VWS V14.01,2013-05-24 07:12:00,
2013-05-24 03:17:00,63.8,62.0,29.88,WNW,293,0.0,1.0,94,0.00,,---,0.00,VWS V14.01,2013-05-24 07:17:00,
2013-05-24 03:22:00,63.7,61.6,29.88,WNW,294,0.0,0.0,93,0.00,,---,0.00,VWS V14.01,2013-05-24 07:22:00,
2013-05-24 03:27:00,63.7,62.0,29.88,WNW,290,0.0,1.0,94,0.00,,---,0.00,VWS V14.01,2013-05-24 07:27:00,
2013-05-24 03:32:00,63.6,61.8,29.88,NNW,333,0.0,2.0,94,0.00,,---,0.00,VWS V14.01,2013-05-24 07:32:00,
2013-05-24 03:37:00,63.5,61.8,29.88,WNW,303,1.0,1.0,94,0.00,,---,0.00,VWS V14.01,2013-05-24 07:37:00,
2013-05-24 03:42:00,63.5,61.8,29.88,West,278,1.0,2.0,94,0.00,,---,0.00,VWS V14.01,2013-05-24 07:42:00,
2013-05-24 03:47:00,63.4,61.7,29.89,West,278,0.0,2.0,94,0.00,,---,0.00,VWS V14.01,2013-05-24 07:47:00,
2013-05-24 03:52:00,63.3,61.5,29.88,WNW,297,0.0,1.0,94,0.00,,---,0.00,VWS V14.01,2013-05-24 07:52:00,
2013-05-24 03:57:00,63.3,61.5,29.88,WNW,300,1.0,1.0,94,0.00,,---,0.00,VWS V14.01,2013-05-24 07:57:00,
2013-05-24 04:02:00,63.2,61.5,29.88,WNW,300,1.0,1.0,94,0.00,,---,0.00,VWS V14.01,2013-05-24 08:02:00,
2013-05-24 04:07:00,63.2,61.5,29.88,NW,326,1.0,3.0,94,0.00,,---,0.00,VWS V14.01,2013-05-24 08:07:00,
2013-05-24 04:12:00,63.1,61.3,29.88,NNW,328,0.0,3.0,94,0.00,,---,0.00,VWS V14.01,2013-05-24 08:12:00,
2013-05-24 04:17:00,63.0,61.2,29.88,NNW,327,0.0,0.0,94,0.00,,---,0.00,VWS V14.01,2013-05-24 08:17:00,
2013-05-24 04:22:00,62.9,61.2,29.88,NNW,328,0.0,1.0,94,0.00,,---,0.00,VWS V14.01,2013-05-24 08:22:00,
2013-05-24 04:27:00,62.8,61.0,29.88,NW,318,0.0,2.0,94,0.00,,---,0.00,VWS V14.01,2013-05-24 08:27:00,
2013-05-24 04:32:00,62.6,60.8,29.88,WNW,297,3.0,4.0,94,0.00,,---,0.00,VWS V14.01,2013-05-24 08:32:00,
2013-05-24 04:37:00,62.5,60.8,29.89,NW,304,3.0,3.0,94,0.00,,---,0.00,VWS V14.01,2013-05-24 08:37:00,
2013-05-24 04:42:00,62.5,60.8,29.89,WNW,298,1.0,2.0,94,0.00,,---,0.00,VWS V14.01,2013-05-24 08:42:00,
2013-05-24 04:48:00,62.4,60.7,29.89,NW,305,0.0,1.0,94,0.00,,---,0.00,VWS V14.01,2013-05-24 08:48:00,
2013-05-24 04:53:00,62.3,60.6,29.89,West,276,1.0,1.0,94,0.00,,---,0.00,VWS V14.01,2013-05-24 08:53:00,
2013-05-24 04:58:00,62.2,60.5,29.89,West,274,1.0,2.0,94,0.00,,---,0.00,VWS V14.01,2013-05-24 08:58:00,
2013-05-24 05:03:00,62.1,60.4,29.90,WNW,294,0.0,4.0,94,0.00,,---,0.00,VWS V14.01,2013-05-24 09:03:00,
2013-05-24 05:08:00,62.1,60.4,29.90,NW,311,2.0,2.0,94,0.00,,---,0.00,VWS V14.01,2013-05-24 09:08:00,
2013-05-24 05:13:00,62.0,60.3,29.90,NW,326,3.0,3.0,94,0.00,,---,0.00,VWS V14.01,2013-05-24 09:13:00,
2013-05-24 05:18:00,61.8,60.1,29.90,WSW,257,0.0,1.0,94,0.00,,---,0.00,VWS V14.01,2013-05-24 09:18:00,
2013-05-24 05:23:00,61.8,60.1,29.90,WNW,300,0.0,2.0,94,0.00,,---,0.00,VWS V14.01,2013-05-24 09:23:00,
2013-05-24 05:28:00,61.8,60.1,29.90,West,262,0.0,2.0,94,0.00,,---,0.00,VWS V14.01,2013-05-24 09:28:00,
2013-05-24 05:33:00,61.8,60.1,29.90,West,266,0.0,1.0,94,0.00,,---,0.00,VWS V14.01,2013-05-24 09:33:00,
2013-05-24 05:38:00,61.8,60.1,29.91,West,281,1.0,1.0,94,0.00,,---,0.00,VWS V14.01,2013-05-24 09:38:00,
2013-05-24 05:43:00,61.8,60.1,29.91,West,276,0.0,1.0,94,0.00,,---,0.00,VWS V14.01,2013-05-24 09:43:00,
2013-05-24 05:48:00,61.8,60.1,29.91,WNW,302,0.0,2.0,94,0.00,,---,0.00,VWS V14.01,2013-05-24 09:48:00,
2013-05-24 05:53:00,61.8,59.8,29.91,WNW,288,1.0,1.0,93,0.00,,---,0.00,VWS V14.01,2013-05-24 09:53:00,
2013-05-24 05:58:00,61.7,59.7,29.91,WNW,288,1.0,1.0,93,0.00,,---,0.00,VWS V14.01,2013-05-24 09:58:00,
2013-05-24 06:03:00,61.5,59.5,29.91,WNW,299,0.0,2.0,93,0.00,,---,0.00,VWS V14.01,2013-05-24 10:03:00,
2013-05-24 06:08:00,61.4,59.4,29.91,WNW,291,1.0,2.0,93,0.00,,---,0.00,VWS V14.01,2013-05-24 10:08:00,
2013-05-24 06:13:00,61.2,59.2,29.92,West,260,0.0,1.0,93,0.00,,---,0.00,VWS V14.01,2013-05-24 10:13:00,
2013-05-24 06:18:00,61.1,59.1,29.92,WSW,239,0.0,1.0,93,0.00,,---,0.00,VWS V14.01,2013-05-24 10:18:00,
2013-05-24 06:23:00,61.0,59.0,29.92,WSW,256,1.0,1.0,93,0.00,,---,0.00,VWS V14.01,2013-05-24 10:23:00,
2013-05-24 06:28:00,61.1,58.8,29.92,West,280,1.0,1.0,92,0.00,,---,0.00,VWS V14.01,2013-05-24 10:28:00,
2013-05-24 06:33:00,61.1,58.8,29.92,WNW,283,2.0,3.0,92,0.00,,---,0.00,VWS V14.01,2013-05-24 10:33:00,
2013-05-24 06:38:00,61.0,58.7,29.92,WNW,293,2.0,2.0,92,0.00,,---,0.00,VWS V14.01,2013-05-24 10:38:00,
2013-05-24 06:43:00,60.9,58.6,29.92,WNW,290,0.0,3.0,92,0.00,,---,0.00,VWS V14.01,2013-05-24 10:43:00,
2013-05-24 06:48:00,60.9,58.6,29.92,West,281,0.0,0.0,92,0.00,,---,0.00,VWS V14.01,2013-05-24 10:48:00,
2013-05-24 06:53:00,60.9,58.6,29.92,West,281,0.0,0.0,92,0.00,,---,0.00,VWS V14.01,2013-05-24 10:53:00,
2013-05-24 06:58:00,61.1,58.5,29.93,West,278,1.0,2.0,91,0.00,,---,0.00,VWS V14.01,2013-05-24 10:58:00,
2013-05-24 07:03:00,61.3,58.7,29.93,WNW,302,2.0,3.0,91,0.00,,---,0.00,VWS V14.01,2013-05-24 11:03:00,
2013-05-24 07:08:00,61.3,58.7,29.93,WNW,287,2.0,2.0,91,0.00,,---,0.00,VWS V14.01,2013-05-24 11:08:00,
2013-05-24 07:13:00,61.3,58.7,29.93,NW,305,1.0,2.0,91,0.00,,---,0.00,VWS V14.01,2013-05-24 11:13:00,
2013-05-24 07:18:00,61.8,59.2,29.93,NW,316,1.0,1.0,91,0.00,,---,0.00,VWS V14.01,2013-05-24 11:18:00,
2013-05-24 07:23:00,62.2,59.5,29.94,WNW,297,0.0,2.0,91,0.00,,---,0.00,VWS V14.01,2013-05-24 11:23:00,
2013-05-24 07:28:00,62.4,59.1,29.94,West,280,0.0,5.0,89,0.00,,---,0.00,VWS V14.01,2013-05-24 11:28:00,
2013-05-24 07:33:00,62.8,59.2,29.93,SW,236,1.0,4.0,88,0.00,,---,0.00,VWS V14.01,2013-05-24 11:33:00,
2013-05-24 07:38:00,63.1,59.2,29.94,West,259,4.0,4.0,87,0.00,,---,0.00,VWS V14.01,2013-05-24 11:38:00,
2013-05-24 07:43:00,63.4,59.5,29.94,West,266,3.0,3.0,87,0.00,,---,0.00,VWS V14.01,2013-05-24 11:43:00,
2013-05-24 07:48:00,63.6,59.0,29.94,West,278,0.0,3.0,85,0.00,,---,0.00,VWS V14.01,2013-05-24 11:48:00,
2013-05-24 07:53:00,63.9,59.6,29.94,WNW,297,4.0,5.0,86,0.00,,---,0.00,VWS V14.01,2013-05-24 11:53:00,
2013-05-24 07:58:00,64.1,59.2,29.94,West,278,1.0,3.0,84,0.00,,---,0.00,VWS V14.01,2013-05-24 11:58:00,
2013-05-24 08:03:00,64.4,59.5,29.95,NW,308,2.0,4.0,84,0.00,,---,0.00,VWS V14.01,2013-05-24 12:03:00,
2013-05-24 08:08:00,64.6,59.7,29.94,NW,305,1.0,5.0,84,0.00,,---,0.00,VWS V14.01,2013-05-24 12:08:00,
2013-05-24 08:13:00,65.0,60.0,29.94,West,273,1.0,6.0,84,0.00,,---,0.00,VWS V14.01,2013-05-24 12:13:00,
2013-05-24 08:18:00,65.4,59.8,29.95,WNW,296,5.0,6.0,82,0.00,,---,0.00,VWS V14.01,2013-05-24 12:18:00,
2013-05-24 08:23:00,65.8,59.8,29.95,West,269,1.0,2.0,81,0.00,,---,0.00,VWS V14.01,2013-05-24 12:23:00,
2013-05-24 08:28:00,66.2,59.9,29.95,NW,314,1.0,5.0,80,0.00,,---,0.00,VWS V14.01,2013-05-24 12:28:00,
2013-05-24 08:33:00,66.5,60.2,29.95,NW,316,2.0,4.0,80,0.00,,---,0.00,VWS V14.01,2013-05-24 12:33:00,
2013-05-24 08:38:00,66.9,59.5,29.95,North,4,1.0,6.0,77,0.00,,---,0.00,VWS V14.01,2013-05-24 12:38:00,
2013-05-24 08:43:00,67.1,59.7,29.95,WNW,287,3.0,7.0,77,0.00,,---,0.00,VWS V14.01,2013-05-24 12:43:00,
2013-05-24 08:48:00,67.3,59.1,29.96,NW,310,2.0,8.0,75,0.00,,---,0.00,VWS V14.01,2013-05-24 12:48:00,
2013-05-24 08:53:00,67.5,58.9,29.96,NW,312,1.0,9.0,74,0.00,,---,0.00,VWS V14.01,2013-05-24 12:53:00,
2013-05-24 08:59:00,67.8,58.8,29.97,NNW,333,4.0,7.0,73,0.00,,---,0.00,VWS V14.01,2013-05-24 12:59:00,
2013-05-24 09:04:00,68.1,58.7,29.97,WNW,286,2.0,7.0,72,0.00,,---,0.00,VWS V14.01,2013-05-24 13:04:00,
2013-05-24 09:09:00,68.4,59.8,29.97,NW,326,4.0,7.0,74,0.00,,---,0.00,VWS V14.01,2013-05-24 13:09:00,
2013-05-24 09:14:00,68.6,58.8,29.97,NNW,346,7.0,8.0,71,0.00,,---,0.00,VWS V14.01,2013-05-24 13:14:00,
2013-05-24 09:19:00,69.0,58.4,29.97,WNW,286,2.0,7.0,69,0.00,,---,0.00,VWS V14.01,2013-05-24 13:19:00,
2013-05-24 09:24:00,69.4,58.8,29.98,WNW,290,1.0,10.0,69,0.00,,---,0.00,VWS V14.01,2013-05-24 13:24:00,
2013-05-24 09:29:00,69.8,59.6,29.98,NNW,328,3.0,6.0,70,0.00,,---,0.00,VWS V14.01,2013-05-24 13:29:00,
2013-05-24 09:34:00,70.0,58.5,29.98,WNW,300,3.0,6.0,67,0.00,,---,0.00,VWS V14.01,2013-05-24 13:34:00,
2013-05-24 09:39:00,70.0,56.8,29.98,NNW,338,8.0,13.0,63,0.00,,---,0.00,VWS V14.01,2013-05-24 13:39:00,
2013-05-24 09:44:00,70.1,56.9,29.98,NW,309,8.0,15.0,63,0.00,,---,0.00,VWS V14.01,2013-05-24 13:44:00,
2013-05-24 09:49:00,70.4,57.7,29.99,NNW,347,2.0,12.0,64,0.00,,---,0.00,VWS V14.01,2013-05-24 13:49:00,
2013-05-24 09:54:00,70.5,56.4,29.99,WNW,302,5.0,16.0,61,0.00,,---,0.00,VWS V14.01,2013-05-24 13:54:00,
2013-05-24 09:59:00,70.9,58.6,29.99,NW,320,2.0,6.0,65,0.00,,---,0.00,VWS V14.01,2013-05-24 13:59:00,
2013-05-24 10:04:00,71.0,56.0,29.99,NW,318,4.0,10.0,59,0.00,,---,0.00,VWS V14.01,2013-05-24 14:04:00,
2013-05-24 10:09:00,71.2,56.6,29.99,NNW,335,7.0,13.0,60,0.00,,---,0.00,VWS V14.01,2013-05-24 14:09:00,
2013-05-24 10:14:00,71.2,55.7,30.00,WNW,302,3.0,14.0,58,0.00,,---,0.00,VWS V14.01,2013-05-24 14:14:00,
2013-05-24 10:19:00,71.5,56.9,30.00,NNW,346,7.0,10.0,60,0.00,,---,0.00,VWS V14.01,2013-05-24 14:19:00,
2013-05-24 10:24:00,71.5,56.0,30.00,NNW,347,5.0,15.0,58,0.00,,---,0.00,VWS V14.01,2013-05-24 14:24:00,
2013-05-24 10:29:00,71.7,56.6,30.00,WNW,285,15.0,20.0,59,0.00,,---,0.00,VWS V14.01,2013-05-24 14:29:00,
2013-05-24 10:34:00,71.4,55.4,30.01,WNW,300,6.0,17.0,57,0.00,,---,0.00,VWS V14.01,2013-05-24 14:34:00,
2013-05-24 10:39:00,71.2,56.2,30.01,West,274,2.0,9.0,59,0.00,,---,0.00,VWS V14.01,2013-05-24 14:39:00,
2013-05-24 10:44:00,71.3,55.8,30.01,NNW,335,10.0,16.0,58,0.00,,---,0.00,VWS V14.01,2013-05-24 14:44:00,
2013-05-24 10:49:00,71.8,55.8,30.01,NW,325,5.0,15.0,57,0.00,,---,0.00,VWS V14.01,2013-05-24 14:49:00,
2013-05-24 10:54:00,71.7,55.7,30.01,WNW,301,13.0,18.0,57,0.00,,---,0.00,VWS V14.01,2013-05-24 14:54:00,
2013-05-24 10:59:00,71.2,55.2,30.02,WNW,283,6.0,14.0,57,0.00,,---,0.00,VWS V14.01,2013-05-24 14:59:00,
2013-05-24 11:04:00,71.3,55.8,30.02,WNW,297,5.0,18.0,58,0.00,,---,0.00,VWS V14.01,2013-05-24 15:04:00,
2013-05-24 11:09:00,70.8,55.8,30.02,NW,326,2.0,15.0,59,0.00,,---,0.00,VWS V14.01,2013-05-24 15:09:00,
2013-05-24 11:14:00,71.0,56.9,30.02,NE,42,4.0,9.0,61,0.00,,---,0.00,VWS V14.01,2013-05-24 15:14:00,
2013-05-24 11:19:00,71.1,55.6,30.03,NNW,337,7.0,18.0,58,0.00,,---,0.00,VWS V14.01,2013-05-24 15:19:00,
2013-05-24 11:24:00,70.4,55.4,30.03,NE,40,1.0,15.0,59,0.00,,---,0.00,VWS V14.01,2013-05-24 15:24:00,
2013-05-24 11:29:00,70.8,56.2,30.03,NW,321,4.0,13.0,60,0.00,,---,0.00,VWS V14.01,2013-05-24 15:29:00,
2013-05-24 11:34:00,71.6,56.1,30.03,NE,34,6.0,15.0,58,0.00,,---,0.00,VWS V14.01,2013-05-24 15:34:00,
2013-05-24 11:39:00,71.8,55.8,30.03,NNW,347,5.0,16.0,57,0.00,,---,0.00,VWS V14.01,2013-05-24 15:39:00,
2013-05-24 11:44:00,72.0,56.0,30.03,NNE,26,20.0,20.0,57,0.00,,---,0.00,VWS V14.01,2013-05-24 15:44:00,
2013-05-24 11:49:00,71.9,54.9,30.04,NNW,342,2.0,18.0,55,0.00,,---,0.00,VWS V14.01,2013-05-24 15:49:00,
2013-05-24 11:54:00,71.7,53.7,30.04,WNW,300,5.0,17.0,53,0.00,,---,0.00,VWS V14.01,2013-05-24 15:54:00,
2013-05-24 11:59:00,71.6,54.1,30.04,North,349,5.0,15.0,54,0.00,,---,0.00,VWS V14.01,2013-05-24 15:59:00,
2013-05-24 12:04:00,71.9,53.9,30.04,North,356,16.0,20.0,53,0.00,,---,0.00,VWS V14.01,2013-05-24 16:04:00,
2013-05-24 12:10:00,71.8,52.7,30.05,North,6,9.0,17.0,51,0.00,,---,0.00,VWS V14.01,2013-05-24 16:10:00,
2013-05-24 12:15:00,71.8,52.7,30.05,NW,324,16.0,18.0,51,0.00,,---,0.00,VWS V14.01,2013-05-24 16:15:00,
2013-05-24 12:20:00,71.8,51.6,30.06,NW,326,3.0,21.0,49,0.00,,---,0.00,VWS V14.01,2013-05-24 16:20:00,
2013-05-24 12:25:00,71.5,51.4,30.05,North,356,5.0,14.0,49,0.00,,---,0.00,VWS V14.01,2013-05-24 16:25:00,
2013-05-24 12:30:00,71.0,50.9,30.06,East,79,5.0,17.0,49,0.00,,---,0.00,VWS V14.01,2013-05-24 16:30:00,
2013-05-24 12:35:00,71.2,51.1,30.06,North,349,5.0,16.0,49,0.00,,---,0.00,VWS V14.01,2013-05-24 16:35:00,
2013-05-24 12:40:00,71.3,50.6,30.06,NNW,331,2.0,14.0,48,0.00,,---,0.00,VWS V14.01,2013-05-24 16:40:00,
2013-05-24 12:45:00,71.4,48.4,30.06,North,4,5.0,15.0,44,0.00,,---,0.00,VWS V14.01,2013-05-24 16:45:00,
2013-05-24 12:50:00,71.5,50.2,30.06,NW,317,9.0,12.0,47,0.00,,---,0.00,VWS V14.01,2013-05-24 16:50:00,
2013-05-24 12:55:00,71.6,47.9,30.06,NW,325,4.0,20.0,43,0.00,,---,0.00,VWS V14.01,2013-05-24 16:55:00,
2013-05-24 13:00:00,71.6,47.9,30.06,West,279,3.0,17.0,43,0.00,,---,0.00,VWS V14.01,2013-05-24 17:00:00,
2013-05-24 13:05:00,71.8,48.1,30.06,NW,304,15.0,17.0,43,0.00,,---,0.00,VWS V14.01,2013-05-24 17:05:00,
2013-05-24 13:10:00,71.6,48.6,30.06,NW,307,9.0,21.0,44,0.00,,---,0.00,VWS V14.01,2013-05-24 17:10:00,
2013-05-24 13:15:00,71.5,49.7,30.06,West,276,2.0,12.0,46,0.00,,---,0.00,VWS V14.01,2013-05-24 17:15:00,
2013-05-24 13:20:00,71.8,49.3,30.06,NW,317,6.0,19.0,45,0.00,,---,0.00,VWS V14.01,2013-05-24 17:20:00,
2013-05-24 13:25:00,71.5,47.8,30.06,WSW,250,15.0,18.0,43,0.00,,---,0.00,VWS V14.01,2013-05-24 17:25:00,
2013-05-24 13:30:00,71.6,46.7,30.07,NW,318,7.0,13.0,41,0.00,,---,0.00,VWS V14.01,2013-05-24 17:30:00,
2013-05-24 13:35:00,71.5,47.2,30.07,NW,320,5.0,19.0,42,0.00,,---,0.00,VWS V14.01,2013-05-24 17:35:00,
2013-05-24 13:40:00,71.3,47.7,30.07,NW,317,13.0,18.0,43,0.00,,---,0.00,VWS V14.01,2013-05-24 17:40:00,
2013-05-24 13:45:00,71.1,46.2,30.07,NNW,347,4.0,24.0,41,0.00,,---,0.00,VWS V14.01,2013-05-24 17:45:00,
2013-05-24 13:50:00,70.8,46.6,30.07,NNE,27,4.0,21.0,42,0.00,,---,0.00,VWS V14.01,2013-05-24 17:50:00,
2013-05-24 13:55:00,70.8,46.6,30.07,NW,326,5.0,21.0,42,0.00,,---,0.00,VWS V14.01,2013-05-24 17:55:00,
2013-05-24 14:00:00,70.9,45.4,30.07,NW,326,2.0,17.0,40,0.00,,---,0.00,VWS V14.01,2013-05-24 18:00:00,
2013-05-24 14:05:00,71.1,46.9,30.07,West,278,2.0,15.0,42,0.00,,---,0.00,VWS V14.01,2013-05-24 18:05:00,
2013-05-24 14:10:00,71.4,46.5,30.07,North,357,5.0,17.0,41,0.00,,---,0.00,VWS V14.01,2013-05-24 18:10:00,
2013-05-24 14:15:00,70.9,42.6,30.07,NE,37,4.0,22.0,36,0.00,,---,0.00,VWS V14.01,2013-05-24 18:15:00,
2013-05-24 14:20:00,70.5,43.0,30.08,NW,304,1.0,21.0,37,0.00,,---,0.00,VWS V14.01,2013-05-24 18:20:00,
2013-05-24 14:25:00,70.6,41.7,30.08,North,352,11.0,21.0,35,0.00,,---,0.00,VWS V14.01,2013-05-24 18:25:00,
2013-05-24 14:30:00,70.4,41.5,30.08,WNW,295,9.0,21.0,35,0.00,,---,0.00,VWS V14.01,2013-05-24 18:30:00,
2013-05-24 14:35:00,70.3,41.4,30.08,West,273,17.0,27.0,35,0.00,,---,0.00,VWS V14.01,2013-05-24 18:35:00,
2013-05-24 14:40:00,70.4,42.9,30.08,NW,309,9.0,18.0,37,0.00,,---,0.00,VWS V14.01,2013-05-24 18:40:00,
2013-05-24 14:45:00,70.6,39.3,30.08,North,10,5.0,22.0,32,0.00,,---,0.00,VWS V14.01,2013-05-24 18:45:00,
2013-05-24 14:50:00,70.7,40.2,30.08,West,280,18.0,20.0,33,0.00,,---,0.00,VWS V14.01,2013-05-24 18:50:00,
2013-05-24 14:55:00,70.8,41.1,30.08,NW,309,3.0,15.0,34,0.00,,---,0.00,VWS V14.01,2013-05-24 18:55:00,
2013-05-24 15:00:00,70.9,41.2,30.08,NNE,19,11.0,17.0,34,0.00,,---,0.00,VWS V14.01,2013-05-24 19:00:00,
2013-05-24 15:05:00,71.0,39.7,30.08,NE,34,14.0,20.0,32,0.00,,---,0.00,VWS V14.01,2013-05-24 19:05:00,
2013-05-24 15:10:00,71.0,38.9,30.08,NNW,347,20.0,21.0,31,0.00,,---,0.00,VWS V14.01,2013-05-24 19:10:00,
2013-05-24 15:15:00,70.7,38.6,30.08,NNW,329,9.0,23.0,31,0.00,,---,0.00,VWS V14.01,2013-05-24 19:15:00,
2013-05-24 15:20:00,70.7,40.2,30.08,NNW,329,3.0,16.0,33,0.00,,---,0.00,VWS V14.01,2013-05-24 19:20:00,
2013-05-24 15:25:00,70.6,39.3,30.08,NW,317,13.0,20.0,32,0.00,,---,0.00,VWS V14.01,2013-05-24 19:25:00,
2013-05-24 15:30:00,70.7,39.4,30.08,North,6,2.0,21.0,32,0.00,,---,0.00,VWS V14.01,2013-05-24 19:30:00,
2013-05-24 15:35:00,71.1,40.6,30.08,NE,46,2.0,16.0,33,0.00,,---,0.00,VWS V14.01,2013-05-24 19:35:00,
2013-05-24 15:40:00,71.2,39.0,30.08,NNE,13,3.0,17.0,31,0.00,,---,0.00,VWS V14.01,2013-05-24 19:40:00,
2013-05-24 15:45:00,71.1,39.0,30.08,NNW,340,4.0,25.0,31,0.00,,---,0.00,VWS V14.01,2013-05-24 19:45:00,
2013-05-24 15:50:00,70.9,38.0,30.08,NNW,339,18.0,22.0,30,0.00,,---,0.00,VWS V14.01,2013-05-24 19:50:00,
2013-05-24 15:55:00,70.9,39.6,30.08,NE,55,2.0,16.0,32,0.00,,---,0.00,VWS V14.01,2013-05-24 19:55:00,
2013-05-24 16:00:00,71.2,40.7,30.08,NW,309,5.0,13.0,33,0.00,,---,0.00,VWS V14.01,2013-05-24 20:00:00,
2013-05-24 16:05:00,71.3,41.5,30.08,NW,309,7.0,19.0,34,0.00,,---,0.00,VWS V14.01,2013-05-24 20:05:00,
2013-05-24 16:10:00,71.4,41.6,30.08,NW,314,3.0,14.0,34,0.00,,---,0.00,VWS V14.01,2013-05-24 20:10:00,
2013-05-24 16:15:00,71.6,41.8,30.08,WNW,288,2.0,12.0,34,0.00,,---,0.00,VWS V14.01,2013-05-24 20:15:00,
2013-05-24 16:20:00,71.7,42.6,30.08,NNW,330,4.0,15.0,35,0.00,,---,0.00,VWS V14.01,2013-05-24 20:20:00,
2013-05-24 16:25:00,71.9,41.3,30.08,NE,36,2.0,14.0,33,0.00,,---,0.00,VWS V14.01,2013-05-24 20:25:00,
2013-05-24 16:30:00,72.0,42.9,30.08,NNE,22,7.0,15.0,35,0.00,,---,0.00,VWS V14.01,2013-05-24 20:30:00,
2013-05-24 16:35:00,71.9,42.8,30.08,NNW,342,0.0,24.0,35,0.00,,---,0.00,VWS V14.01,2013-05-24 20:35:00,
2013-05-24 16:40:00,72.0,42.1,30.08,NNW,337,4.0,12.0,34,0.00,,---,0.00,VWS V14.01,2013-05-24 20:40:00,
2013-05-24 16:46:00,72.1,42.2,30.08,NNW,337,3.0,14.0,34,0.00,,---,0.00,VWS V14.01,2013-05-24 20:46:00,
2013-05-24 16:51:00,72.3,43.1,30.08,NE,40,1.0,9.0,35,0.00,,---,0.00,VWS V14.01,2013-05-24 20:51:00,
2013-05-24 16:56:00,72.4,40.1,30.08,NNW,340,5.0,13.0,31,0.00,,---,0.00,VWS V14.01,2013-05-24 20:56:00,
2013-05-24 17:01:00,72.2,39.1,30.09,NNW,332,9.0,19.0,30,0.00,,---,0.00,VWS V14.01,2013-05-24 21:01:00,
2013-05-24 17:06:00,71.9,39.7,30.09,NE,43,3.0,18.0,31,0.00,,---,0.00,VWS V14.01,2013-05-24 21:06:00,
2013-05-24 17:11:00,72.2,39.9,30.09,NNE,29,1.0,14.0,31,0.00,,---,0.00,VWS V14.01,2013-05-24 21:11:00,
2013-05-24 17:16:00,72.2,39.1,30.08,WNW,298,7.0,17.0,30,0.00,,---,0.00,VWS V14.01,2013-05-24 21:16:00,
2013-05-24 17:21:00,72.2,39.1,30.09,NNW,336,9.0,20.0,30,0.00,,---,0.00,VWS V14.01,2013-05-24 21:21:00,
2013-05-24 17:26:00,72.1,38.1,30.09,NNW,335,4.0,15.0,29,0.00,,---,0.00,VWS V14.01,2013-05-24 21:26:00,
2013-05-24 17:31:00,72.2,38.2,30.09,NW,321,8.0,13.0,29,0.00,,---,0.00,VWS V14.01,2013-05-24 21:31:00,
2013-05-24 17:36:00,72.0,35.3,30.09,NW,306,17.0,20.0,26,0.00,,---,0.00,VWS V14.01,2013-05-24 21:36:00,
2013-05-24 17:41:00,71.8,35.1,30.09,NNW,335,5.0,24.0,26,0.00,,---,0.00,VWS V14.01,2013-05-24 21:41:00,
2013-05-24 17:46:00,71.7,36.0,30.09,NNW,340,3.0,18.0,27,0.00,,---,0.00,VWS V14.01,2013-05-24 21:46:00,
2013-05-24 17:51:00,71.9,37.1,30.09,East,94,1.0,10.0,28,0.00,,---,0.00,VWS V14.01,2013-05-24 21:51:00,
2013-05-24 17:56:00,72.0,36.2,30.09,NW,326,2.0,14.0,27,0.00,,---,0.00,VWS V14.01,2013-05-24 21:56:00,
2013-05-24 18:01:00,72.2,38.2,30.10,WNW,295,2.0,10.0,29,0.00,,---,0.00,VWS V14.01,2013-05-24 22:01:00,
2013-05-24 18:06:00,72.3,39.2,30.10,NW,319,5.0,12.0,30,0.00,,---,0.00,VWS V14.01,2013-05-24 22:06:00,
2013-05-24 18:11:00,72.2,36.4,30.10,North,358,8.0,15.0,27,0.00,,---,0.00,VWS V14.01,2013-05-24 22:11:00,
2013-05-24 18:16:00,72.0,37.1,30.10,NNW,342,7.0,15.0,28,0.00,,---,0.00,VWS V14.01,2013-05-24 22:16:00,
2013-05-24 18:21:00,71.9,38.0,30.10,NE,52,4.0,9.0,29,0.00,,---,0.00,VWS V14.01,2013-05-24 22:21:00,
2013-05-24 18:26:00,71.9,37.1,30.10,NW,316,12.0,15.0,28,0.00,,---,0.00,VWS V14.01,2013-05-24 22:26:00,
2013-05-24 18:31:00,71.6,35.9,30.10,NW,318,4.0,16.0,27,0.00,,---,0.00,VWS V14.01,2013-05-24 22:31:00,
2013-05-24 18:36:00,71.6,36.8,30.10,NNW,341,7.0,11.0,28,0.00,,---,0.00,VWS V14.01,2013-05-24 22:36:00,
2013-05-24 18:41:00,71.4,36.6,30.10,NNW,329,0.0,14.0,28,0.00,,---,0.00,VWS V14.01,2013-05-24 22:41:00,
2013-05-24 18:46:00,71.4,37.5,30.10,NW,309,7.0,9.0,29,0.00,,---,0.00,VWS V14.01,2013-05-24 22:46:00,
2013-05-24 18:51:00,71.4,36.6,30.10,NNW,343,4.0,12.0,28,0.00,,---,0.00,VWS V14.01,2013-05-24 22:51:00,
2013-05-24 18:56:00,71.4,36.6,30.10,NNW,333,1.0,8.0,28,0.00,,---,0.00,VWS V14.01,2013-05-24 22:56:00,
2013-05-24 19:01:00,71.3,37.4,30.10,WNW,294,2.0,10.0,29,0.00,,---,0.00,VWS V14.01,2013-05-24 23:01:00,
2013-05-24 19:06:00,71.2,36.5,30.10,NW,318,3.0,14.0,28,0.00,,---,0.00,VWS V14.01,2013-05-24 23:06:00,
2013-05-24 19:11:00,71.0,37.2,30.10,NW,325,0.0,13.0,29,0.00,,---,0.00,VWS V14.01,2013-05-24 23:11:00,
2013-05-24 19:16:00,70.9,37.1,30.11,WNW,302,5.0,12.0,29,0.00,,---,0.00,VWS V14.01,2013-05-24 23:16:00,
2013-05-24 19:21:00,70.8,37.9,30.11,NW,307,3.0,10.0,30,0.00,,---,0.00,VWS V14.01,2013-05-24 23:21:00,
2013-05-24 19:26:00,70.8,37.9,30.11,WNW,300,4.0,8.0,30,0.00,,---,0.00,VWS V14.01,2013-05-24 23:26:00,
2013-05-24 19:31:00,70.5,38.4,30.11,NW,326,4.0,9.0,31,0.00,,---,0.00,VWS V14.01,2013-05-24 23:31:00,
2013-05-24 19:36:00,70.3,39.1,30.11,ENE,68,1.0,7.0,32,0.00,,---,0.00,VWS V14.01,2013-05-24 23:36:00,
2013-05-24 19:41:00,70.1,38.1,30.12,NNW,333,7.0,10.0,31,0.00,,---,0.00,VWS V14.01,2013-05-24 23:41:00,
2013-05-24 19:46:00,69.9,37.9,30.12,NNW,333,3.0,11.0,31,0.00,,---,0.00,VWS V14.01,2013-05-24 23:46:00,
2013-05-24 19:51:00,69.6,38.5,30.12,NE,44,1.0,8.0,32,0.00,,---,0.00,VWS V14.01,2013-05-24 23:51:00,
2013-05-24 19:56:00,69.3,38.2,30.12,North,352,1.0,8.0,32,0.00,,---,0.00,VWS V14.01,2013-05-24 23:56:00,
2013-05-24 20:01:00,68.9,37.8,30.13,NW,325,2.0,6.0,32,0.00,,---,0.00,VWS V14.01,2013-05-25 00:01:00,
2013-05-24 20:06:00,68.5,38.3,30.13,NNW,335,1.0,7.0,33,0.00,,---,0.00,VWS V14.01,2013-05-25 00:06:00,
2013-05-24 20:11:00,68.1,37.9,30.13,NNW,340,3.0,8.0,33,0.00,,---,0.00,VWS V14.01,2013-05-25 00:11:00,
2013-05-24 20:16:00,67.6,37.5,30.13,NNE,24,3.0,11.0,33,0.00,,---,0.00,VWS V14.01,2013-05-25 00:16:00,
2013-05-24 20:21:00,67.0,38.5,30.13,NNW,344,1.0,8.0,35,0.00,,---,0.00,VWS V14.01,2013-05-25 00:21:00,
2013-05-24 20:26:00,66.4,37.2,30.13,NNW,337,1.0,8.0,34,0.00,,---,0.00,VWS V14.01,2013-05-25 00:26:00,
2013-05-24 20:31:00,66.0,38.3,30.13,WNW,293,1.0,7.0,36,0.00,,---,0.00,VWS V14.01,2013-05-25 00:31:00,
2013-05-24 20:36:00,65.5,38.6,30.13,NNW,344,3.0,7.0,37,0.00,,---,0.00,VWS V14.01,2013-05-25 00:36:00,
2013-05-24 20:41:00,65.0,39.5,30.13,NNW,348,2.0,5.0,39,0.00,,---,0.00,VWS V14.01,2013-05-25 00:41:00,
2013-05-24 20:46:00,64.5,40.3,30.14,NNW,339,2.0,5.0,41,0.00,,---,0.00,VWS V14.01,2013-05-25 00:46:00,
2013-05-24 20:51:00,64.0,41.1,30.14,NW,316,4.0,5.0,43,0.00,,---,0.00,VWS V14.01,2013-05-25 00:51:00,
2013-05-24 20:56:00,63.7,40.2,30.14,NNW,330,0.0,6.0,42,0.00,,---,0.00,VWS V14.01,2013-05-25 00:56:00,
2013-05-24 21:01:00,63.4,39.3,30.15,NNW,328,0.0,5.0,41,0.00,,---,0.00,VWS V14.01,2013-05-25 01:01:00,
2013-05-24 21:06:00,63.0,40.8,30.15,WNW,302,0.0,3.0,44,0.00,,---,0.00,VWS V14.01,2013-05-25 01:06:00,
2013-05-24 21:11:00,62.5,40.9,30.15,NW,318,0.0,2.0,45,0.00,,---,0.00,VWS V14.01,2013-05-25 01:11:00,
2013-05-24 21:16:00,62.1,39.4,30.15,NNW,343,0.0,3.0,43,0.00,,---,0.00,VWS V14.01,2013-05-25 01:16:00,
2013-05-24 21:21:00,61.9,39.8,30.16,NNW,338,0.0,2.0,44,0.00,,---,0.00,VWS V14.01,2013-05-25 01:21:00,
2013-05-24 21:26:00,61.5,38.8,30.16,North,6,0.0,1.0,43,0.00,,---,0.00,VWS V14.01,2013-05-25 01:26:00,
2013-05-24 21:31:00,61.2,39.1,30.16,WNW,297,0.0,1.0,44,0.00,,---,0.00,VWS V14.01,2013-05-25 01:31:00,
2013-05-24 21:36:00,60.8,41.0,30.16,WNW,297,0.0,0.0,48,0.00,,---,0.00,VWS V14.01,2013-05-25 01:36:00,
2013-05-24 21:41:00,59.9,42.7,30.16,WNW,297,0.0,1.0,53,0.00,,---,0.00,VWS V14.01,2013-05-25 01:41:00,
2013-05-24 21:46:00,59.5,44.3,30.16,NNW,330,0.0,4.0,57,0.00,,---,0.00,VWS V14.01,2013-05-25 01:46:00,
2013-05-24 21:51:00,59.0,41.9,30.17,NE,35,0.0,1.0,53,0.00,,---,0.00,VWS V14.01,2013-05-25 01:51:00,
2013-05-24 21:56:00,58.8,41.2,30.17,NNE,31,0.0,1.0,52,0.00,,---,0.00,VWS V14.01,2013-05-25 01:56:00,
2013-05-24 22:01:00,58.8,40.7,30.17,NNW,335,0.0,1.0,51,0.00,,---,0.00,VWS V14.01,2013-05-25 02:01:00,
2013-05-24 22:06:00,58.9,40.3,30.18,NE,35,0.0,1.0,50,0.00,,---,0.00,VWS V14.01,2013-05-25 02:06:00,
2013-05-24 22:11:00,59.1,39.5,30.18,NE,35,0.0,1.0,48,0.00,,---,0.00,VWS V14.01,2013-05-25 02:11:00,
2013-05-24 22:16:00,59.2,39.5,30.18,NNE,32,0.0,1.0,48,0.00,,---,0.00,VWS V14.01,2013-05-25 02:16:00,
2013-05-24 22:21:00,59.2,39.5,30.18,WNW,285,0.0,2.0,48,0.00,,---,0.00,VWS V14.01,2013-05-25 02:21:00,
2013-05-24 22:26:00,59.3,39.6,30.18,WNW,302,0.0,1.0,48,0.00,,---,0.00,VWS V14.01,2013-05-25 02:26:00,
2013-05-24 22:31:00,59.3,39.6,30.19,WNW,302,0.0,1.0,48,0.00,,---,0.00,VWS V14.01,2013-05-25 02:31:00,
2013-05-24 22:36:00,59.3,39.6,30.19,WNW,302,0.0,0.0,48,0.00,,---,0.00,VWS V14.01,2013-05-25 02:36:00,
2013-05-24 22:41:00,59.3,39.6,30.19,SSW,205,1.0,1.0,48,0.00,,---,0.00,VWS V14.01,2013-05-25 02:41:00,
2013-05-24 22:46:00,59.1,39.5,30.20,SSE,158,1.0,1.0,48,0.00,,---,0.00,VWS V14.01,2013-05-25 02:46:00,
2013-05-24 22:51:00,59.2,39.5,30.20,ESE,115,0.0,5.0,48,0.00,,---,0.00,VWS V14.01,2013-05-25 02:51:00,
2013-05-24 22:56:00,59.4,39.2,30.20,ESE,115,0.0,1.0,47,0.00,,---,0.00,VWS V14.01,2013-05-25 02:56:00,
2013-05-24 23:01:00,59.7,38.9,30.20,NNE,32,0.0,1.0,46,0.00,,---,0.00,VWS V14.01,2013-05-25 03:01:00,
2013-05-24 23:06:00,59.4,39.7,30.20,NNE,31,0.0,1.0,48,0.00,,---,0.00,VWS V14.01,2013-05-25 03:06:00,
2013-05-24 23:11:00,58.8,40.7,30.20,NE,49,0.0,4.0,51,0.00,,---,0.00,VWS V14.01,2013-05-25 03:11:00,
2013-05-24 23:16:00,58.7,39.1,30.20,NNE,22,0.0,4.0,48,0.00,,---,0.00,VWS V14.01,2013-05-25 03:16:00,
2013-05-24 23:21:00,58.8,39.2,30.20,NE,43,0.0,4.0,48,0.00,,---,0.00,VWS V14.01,2013-05-25 03:21:00,
2013-05-24 23:26:00,58.9,39.3,30.20,NNE,13,0.0,2.0,48,0.00,,---,0.00,VWS V14.01,2013-05-25 03:26:00,
2013-05-24 23:31:00,58.9,38.7,30.20,NE,44,0.0,2.0,47,0.00,,---,0.00,VWS V14.01,2013-05-25 03:31:00,
2013-05-24 23:36:00,58.9,38.7,30.20,NE,44,0.0,1.0,47,0.00,,---,0.00,VWS V14.01,2013-05-25 03:36:00,
2013-05-24 23:41:00,58.7,38.5,30.20,NE,40,1.0,2.0,47,0.00,,---,0.00,VWS V14.01,2013-05-25 03:41:00,
2013-05-24 23:46:00,58.7,38.5,30.21,NE,39,0.0,3.0,47,0.00,,---,0.00,VWS V14.01,2013-05-25 03:46:00,
2013-05-24 23:51:00,58.6,39.0,30.21,NNE,20,0.0,1.0,48,0.00,,---,0.00,VWS V14.01,2013-05-25 03:51:00,
2013-05-24 23:56:00,58.2,39.2,30.21,NNE,20,0.0,1.0,49,0.00,,---,0.00,VWS V14.01,2013-05-25 03:56:00,